Location: Bandy
(45.8833°N, 2.0667°E)
Time: 09:50:45
(UTC+00:00)

Daily predictions for brighter satellites

Satellite Brightness Start Highest point End
(mag) Time Altitude Azimuth Time Altitude Azimuth Time Altitude Azimuth
Gbstr 26 Del rocket 2.8 19:50:06 10° WNW 19:53:50 70° NNE 19:57:42 10° ESE
MOS 1 4.3 19:49:02 10° SSE 19:54:40 76° ENE 20:00:20 10° NNW
Cosmos 1538 Rocket 4.0 19:50:02 10° S 19:55:11 70° ESE 20:00:22 10° NNE
IRS-1A Rocket 4.3 19:50:39 10° SSE 19:56:09 76° ENE 20:01:39 10° NNW
OBJECT-B 2.1 19:53:53 10° S 19:56:55 40° W 20:00:00 10° NNW
USA 186 3.7 19:58:03 10° SSW 20:00:34 26° W 20:02:57 10° NW
Cosmos 2098 Rocket 2.5 19:57:37 10° S 20:00:48 69° E 20:04:42 10° NNE
IGS 5A 3.8 19:57:09 10° SE 20:01:08 48° ENE 20:05:08 10° N
ARIANE 5 R/B 4.5 19:59:47 10° ESE 20:02:38 17° ENE 20:05:28 10° NNE
Ariane Rocket 3.0 20:01:42 10° SSE 20:06:46 86° ENE 20:11:52 10° NNW
Cosmos 1842 Rocket 4.5 20:03:25 10° NNW 20:07:47 52° W 20:12:07 10° S
Landsat 7 4.1 20:03:41 10° SSE 20:08:18 54° ENE 20:12:57 10° N
Cosmos 1782 4.0 20:05:02 10° NNE 20:08:29 27° ENE 20:11:44 11° SE
Cosmos 2082 Rocket 3.2 20:06:23 10° SW 20:11:53 53° WNW 20:17:27 10° NNE
Cosmos 304 Rocket 3.8 20:08:02 10° NNW 20:12:50 72° ENE 20:17:36 10° SSE
Cosmos 2278 4.4 20:12:57 10° NW 20:18:27 52° WSW 20:23:54 10° S
ATLAS 3B R/B 3.3 20:12:18 10° NW 20:19:17 60° WSW 20:26:31 10° SSE
Cosmos 2360 Rocket 3.3 20:14:17 10° N 20:19:17 31° NE 20:23:55 12° ESE
Cosmos 1606 4.0 20:16:17 10° NNW 20:19:52 41° W 20:23:27 10° SSW
Resurs 1-3 4.1 20:16:18 10° S 20:20:38 60° W 20:25:00 10° NNW
ATLAS 2AS CENTAUR R/B 4.2 20:13:09 10° WSW 20:20:43 47° NW 20:28:05 10° NNE
MetOp-B 4.3 20:18:54 10° SSE 20:24:09 60° ENE 20:29:26 10° N
Cosmos 1092 Rocket 4.1 20:19:47 10° S 20:25:57 64° E 20:32:13 10° NNE
Cosmos 2221 4.5 20:23:31 10° NNW 20:27:17 29° W 20:31:03 10° SSW
ISS -2.1 20:26:56 10° W 20:29:48 25° SW 20:32:13 12° SSE
NOSS 2-1 (C) 3.7 20:27:44 10° S 20:30:39 28° ESE 20:33:30 10° ENE
Cosmos 2151 3.0 20:26:34 10° S 20:30:49 86° W 20:35:07 10° N
ERS-2 2.4 20:31:09 10° N 20:34:48 70° WNW 20:38:24 10° SSW
Cosmos 2026 Rocket 4.1 20:28:45 10° S 20:34:58 61° E 20:41:07 10° NNE
Cosmos 2084 3.5 20:32:13 10° SSW 20:36:05 46° ESE 20:40:05 10° NE
COSMOS 2455 4.2 20:34:50 15° SE 20:36:51 18° ESE 20:40:41 10° ENE
Cosmos 158 Rocket 4.3 20:32:24 10° SSW 20:37:34 70° WNW 20:42:53 10° NNE
NOSS 2-1 (D) 3.4 20:35:18 10° S 20:38:22 34° ESE 20:41:24 10° NE
Cosmos 1812 3.8 20:35:12 10° NNE 20:38:35 28° ENE 20:40:31 19° ESE
Cosmos 2333 Rocket 3.7 20:35:39 10° N 20:40:14 25° NE 20:44:24 12° E
Cosmos 1980 Rocket 3.9 20:35:52 10° NW 20:40:35 28° WSW 20:45:18 10° SSW
GP-B 3.4 20:36:16 10° NNE 20:40:36 50° E 20:44:01 16° SSE
Cosmos 923 Rocket 4.0 20:36:00 10° SSW 20:41:20 78° ESE 20:46:42 10° NNE
BREEZE-M DEB (TANK) 3.8 20:38:37 10° WNW 20:41:59 67° SSW 20:49:45 16° SE
SPOT 1/Viking Rocket 3.6 20:38:27 13° SSE 20:43:05 76° ENE 20:48:19 10° N
ERS-1 Rocket 3.8 20:40:25 17° SE 20:43:44 36° ENE 20:48:18 10° N
USA 245 3.6 20:42:06 16° SSE 20:45:50 63° ENE 20:49:41 10° N
SL-27 R/B 3.5 20:44:42 22° SE 20:45:55 27° ESE 20:49:01 10° NE
Okean 3 Rocket 3.8 20:48:05 15° SSE 20:51:38 53° E 20:56:04 10° NNE
USA 276 3.1 20:49:03 10° WNW 20:51:57 34° SW 20:53:10 24° S
Cosmos 2056 Rocket 3.8 20:47:39 10° NNW 20:52:56 55° ENE 20:56:16 21° SE
Cosmos 2322 Rocket 2.2 20:48:15 10° NNW 20:53:55 85° ENE 20:57:55 20° SSE
Meteor 1-26 Rocket 4.5 20:52:59 10° NNW 20:58:55 74° W 21:04:07 13° S
CARTOSAT-1 3.5 20:59:31 23° SSE 21:02:08 72° ENE 21:06:28 10° N
Cosmos 1428 Rocket 4.5 20:56:24 10° S 21:02:33 84° W 21:08:42 10° N
Spot 2 Rocket 3.5 21:03:04 21° SSE 21:06:32 80° ENE 21:11:39 10° NNW
Cosmos 2219 Rocket 3.3 21:06:16 10° N 21:11:16 32° NE 21:14:26 19° ESE
Resurs 01 Rocket 3.2 21:09:32 10° SSW 21:13:29 31° W 21:17:27 10° NNW
BREEZE M DEB (TANK) 3.8 21:10:53 10° SW 21:14:31 56° SE 21:34:19 10° ENE
Cosmos 1371 Rocket 4.0 21:09:23 10° NNW 21:14:48 89° SW 21:17:55 26° SSE
Cosmos 1680 Rocket 3.7 21:10:04 10° SSW 21:15:20 73° WNW 21:20:36 10° NNE
Cosmos 2112 Rocket 4.1 21:10:31 10° SSW 21:15:49 83° WNW 21:21:07 10° NNE
Cosmos 1515 Rocket 3.8 21:14:39 10° N 21:19:00 52° ENE 21:20:37 34° SE
Cosmos 1151 Rocket 3.3 21:14:47 10° NNW 21:19:07 66° W 21:21:47 23° S
Terra 2.1 21:19:00 30° SE 21:21:06 54° ENE 21:25:45 10° N
Cosmos 1553 Rocket 3.9 21:16:21 10° N 21:22:29 87° E 21:26:23 24° S
Cosmos 2266 Rocket 4.4 21:19:57 26° SE 21:22:55 44° E 21:28:47 10° NNE
SL-16 R/B 3.0 21:19:07 10° NW 21:24:28 44° WSW 21:28:20 18° S
CZ-2C R/B 4.4 21:23:28 10° N 21:27:52 54° WNW 21:32:12 10° SSW
ATLAS 5 CENTAUR R/B 3.4 21:24:04 10° NNW 21:28:59 35° NE 21:33:05 17° E
Cosmos 2333 4.4 21:25:10 10° NNW 21:30:44 59° ENE 21:33:17 31° SE
Cosmos 1766 Rocket 4.2 21:27:54 13° SSW 21:31:46 55° WNW 21:36:04 10° N
Cosmos 1328 Rocket 3.9 21:28:31 10° NNW 21:32:56 63° W 21:35:09 28° SSW
Cosmos 2228 Rocket 4.1 21:30:24 10° N 21:34:23 32° ENE 21:35:17 29° E
Cosmos 2237 4.5 21:29:07 10° NNW 21:34:45 62° WSW 21:37:45 28° S
NOSS 2-1 (E) 3.3 21:33:16 10° SW 21:36:31 61° NW 21:39:55 10° NNE
SPOT 5 2.7 21:36:48 35° S 21:38:33 73° WSW 21:42:59 10° NNW
ARIANE 5 R/B 3.0 21:36:31 29° S 21:38:39 59° WSW 21:43:03 10° NNW
COSMOS 2428 3.5 21:33:34 10° NNW 21:38:58 42° NE 21:41:31 27° ESE
Gbstr 26 Del rocket 4.2 21:37:16 10° W 21:40:19 23° SW 21:40:43 23° SSW
Cosmos 1862 3.5 21:39:48 30° SSW 21:41:38 69° W 21:45:37 10° N
NOSS 3-1 (C) 4.1 21:37:01 10° NW 21:44:32 82° NE 21:49:23 30° SE
Cosmos 292 Rocket 3.7 21:40:48 10° NNW 21:45:36 85° WSW 21:47:10 43° SSE
Cosmos 1048 Rocket 4.5 21:48:39 37° ESE 21:49:08 38° ESE 21:53:52 10° NE
Meteor 2-6 Rocket 4.5 21:43:56 10° NNW 21:49:15 60° W 21:52:01 28° SSW
S3M 4.1 21:48:12 10° N 21:54:37 81° W 21:57:51 32° S
Cosmos 1655 Rocket 4.0 21:54:12 28° S 21:57:51 89° E 22:04:19 10° N
COSMOS 2487 3.1 22:00:10 43° NE 22:00:10 43° NE 22:02:40 10° NNE
USA 229 DEB 4.1 21:53:08 10° NW 22:00:26 68° NE 22:04:27 31° ESE
USA 229 4.1 21:53:14 10° NW 22:00:31 67° NE 22:04:33 30° ESE
Cosmos 972 Rocket 4.0 21:59:17 45° SSE 22:00:42 63° ESE 22:05:39 10° NNE
Cosmos 1805 Rocket 3.9 22:02:11 47° ESE 22:02:22 48° E 22:06:38 10° NNE
Cosmos 1420 Rocket 4.3 21:57:22 10° NNW 22:02:36 59° WSW 22:04:27 38° SSW
Cosmos 2360 Rocket 2.8 21:58:06 10° NW 22:03:28 47° WSW 22:05:41 31° SSW
Cosmos 1174 4.4 22:04:17 10° NW 22:06:29 35° W 22:06:29 35° W
Cosmos 1500 Rocket 3.6 22:11:53 51° SSW 22:12:56 74° W 22:17:24 10° N
USA 267 3.5 22:07:27 10° ENE 22:13:39 44° SE 22:14:48 40° SSE
NOSS 0 Rocket 4.5 22:10:27 10° NNW 22:16:31 50° NE 22:18:54 33° ESE
NOSS 3-1 (A) 4.1 22:13:29 10° NW 22:21:00 84° NE 22:25:00 36° SE
COSMOS 2455 2.8 22:17:53 21° SW 22:22:01 84° WNW 22:28:05 10° NNE
ERS-1 Rocket 4.3 22:20:25 22° SW 22:22:32 31° W 22:26:59 10° NNW
Lacrosse 5 3.5 22:25:50 21° E 22:25:50 21° E 22:27:49 10° ENE
Meteor 1-27 Rocket 3.9 22:18:19 10° NNW 22:23:57 68° W 22:25:47 43° SSW
Meteor 1-20 Rocket 4.2 22:23:04 52° SE 22:24:10 63° E 22:29:48 10° NNE
Cosmos 2333 Rocket 2.3 22:19:23 10° NNW 22:25:00 65° WSW 22:26:23 48° S
Cosmos 1452 Rocket 3.5 22:19:57 10° NNW 22:25:11 73° WSW 22:26:16 55° S
H-2A R/B 3.7 22:22:10 10° N 22:26:21 65° WNW 22:27:05 53° WSW
COBE Rocket 3.8 22:26:51 59° ESE 22:27:20 63° ENE 22:32:00 10° N
BREEZE-M R/B 4.0 22:26:13 10° WSW 22:31:57 26° ENE 22:34:01 10° ENE
Cosmos 2297 Rocket 3.4 22:32:07 26° E 22:32:07 26° E 22:36:11 10° NE
Cosmos 2322 3.9 22:26:28 10° NNW 22:32:06 61° WSW 22:33:25 48° SSW
Cosmos 1743 Rocket 4.4 22:32:53 36° WSW 22:34:06 46° WNW 22:38:23 10° N
Sich 1 2.9 22:34:10 81° E 22:34:10 81° E 22:38:29 10° N
Cosmos 2322 Rocket 4.4 22:34:07 10° WNW 22:37:09 15° W 22:39:44 11° SW
Cosmos 2237 Rocket 2.9 22:32:22 10° NNW 22:37:48 44° NE 22:39:29 35° E
Cosmos 1633 Rocket 3.7 22:44:03 44° ENE 22:44:03 44° ENE 22:47:41 10° NNE
BREEZE-M DEB (TANK) 3.4 22:39:36 10° WNW 22:42:20 33° WNW 22:42:20 33° WNW
Cosmos 2227 Rocket 3.5 22:44:30 25° E 22:44:30 25° E 22:48:20 10° NE
Cosmos 1110 Rocket 3.9 22:42:09 10° NNW 22:47:31 88° WSW 22:48:10 70° SSE
USA 234 3.8 22:42:59 18° E 22:47:52 56° NNE 22:54:16 10° NW
APEX 4.2 22:48:05 59° SSE 22:49:04 71° ESE 22:55:41 10° NNE
Cosmos 1331 Rocket 3.8 22:44:43 10° NNW 22:49:59 88° ENE 22:50:32 73° SSE
Cosmos 1666 Rocket 3.7 22:50:45 66° ENE 22:50:45 66° ENE 22:54:52 10° NNE
Cosmos 2219 Rocket 2.7 22:50:04 10° NW 22:55:22 45° WSW 22:56:08 42° SW
Gblst 52 Del rocket 4.5 22:50:47 10° WNW 22:57:01 74° SSW 22:58:44 52° SE
Terra 3.8 22:57:53 17° WSW 22:59:11 19° W 23:02:30 10° NW
Spot 4 3.7 23:03:05 76° SW 23:03:15 77° WSW 23:08:07 10° NNW
SL-16 R/B 3.7 23:02:14 10° N 23:07:11 29° NE 23:09:38 22° E
Meteor 1-25 Rocket 4.4 23:06:07 48° SW 23:07:27 63° WNW 23:12:58 10° N
Meteor 1-18 Rocket 4.1 23:04:04 10° NNW 23:09:56 87° W 23:10:44 68° S
SL-08 R/B 4.4 23:11:22 62° S 23:12:31 83° E 23:18:41 10° N
ATLAS 5 CENTAUR R/B 2.5 23:08:22 10° NW 23:13:57 59° WSW 23:14:35 56° SSW
Cosmos 1862 Rocket 3.7 23:10:13 10° N 23:14:06 70° N 23:14:06 70° N
Okean 1 4.1 23:11:51 10° NNW 23:15:05 48° NW 23:15:05 48° NW
SL-08 ROCKET BODY 4.4 23:19:00 58° SSW 23:20:15 78° W 23:26:28 10° N
COSMOS 2428 3.6 23:18:04 10° NW 23:23:08 34° WSW 23:23:31 34° WSW
NOSS 2-2 (C) 4.4 23:18:03 10° NW 23:23:22 77° NE 23:25:11 50° SE
Cosmos 1707 Rocket 4.4 23:19:16 10° NNW 23:23:04 41° W 23:23:04 41° W
Meteor 2-4 Rocket 3.7 23:18:15 10° N 23:24:14 84° E 23:24:59 69° SSE
Cosmos 1666 3.8 23:26:25 42° NNE 23:26:25 42° NNE 23:29:06 10° NNE
Meteor 1-19 Rocket 4.5 23:22:40 10° NNW 23:28:04 52° W 23:28:36 50° WSW
Cosmos 1703 Rocket 4.4 23:25:50 10° N 23:29:38 42° ENE 23:29:38 42° ENE
Cosmos 1709 Rocket 4.4 23:30:39 46° ESE 23:31:35 50° E 23:37:43 10° NNE
TSX-5 4.5 23:35:45 57° NW 23:35:45 57° NW 23:40:10 10° NNE
Cosmos 1992 Rocket 4.5 23:30:54 10° NNW 23:36:00 50° ENE 23:36:41 47° E
ALOS 2 3.1 23:36:46 54° WNW 23:36:46 54° WNW 23:40:32 10° NNW
Meteor 1-5 Rocket 4.1 23:35:45 73° SSE 23:36:19 83° E 23:42:15 10° NNE
Cosmos 909 Rocket 4.2 23:36:15 55° SSE 23:37:05 59° ESE 23:44:32 10° NE
Cosmos 1745 Rocket 3.9 23:39:17 64° SSW 23:40:20 87° W 23:46:41 10° N
Cosmos 2219 3.1 23:42:23 75° SSE 23:42:44 79° ESE 23:48:31 10° NNE
Cosmos 1302 Rocket 4.1 23:40:34 10° NNW 23:45:34 61° W 23:45:34 61° W
Cosmos 1269 Rocket 4.0 23:47:42 69° WSW 23:48:05 72° WNW 23:53:23 10° NNE
Timation 1 Rocket 4.2 23:51:21 67° SE 23:51:42 68° ESE 23:57:40 10° NNE
Meteor 1-13 Rocket 4.2 23:46:02 10° N 23:51:48 69° ENE 23:52:26 63° ESE
Meteor 1-14 Rocket 4.4 23:51:47 53° WSW 23:52:33 58° WNW 23:58:09 10° N
